This demonstration page uses our WeatherBlox Daily Observations layout. Learn more.

Hourly Observations for April 24, 2016

Temp ( °F °C ) Dew Point ( °F °C ) Humidity (%) Winds ( mph kmh ) Pressure ( in mb ) Visibility ( mi km ) Precip ( " mm )
12:15 am 00:15 Clear 63 17.3 51 10.3 64 64 S 17 28 29.56 1001 10 16.0934 0 0
12:35 am 00:35 Clear 63 17.2 51 10.3 64 64 S 16 26 29.56 1001 10 16.0934 0 0
12:55 am 00:55 Clear 64 17.5 50 10.2 62 62 S 17 28 29.56 1001 10 16.0934 0 0
1:15 am 01:15 Clear 64 17.6 50 10.2 62 62 S 21 33 29.59 1002 10 16.0934 0 0
1:35 am 01:35 Partly Cloudy 64 17.8 51 10.3 62 62 S 21 33 29.56 1001 10 16.0934 0 0
1:55 am 01:55 Partly Cloudy 64 17.6 51 10.5 63 63 S 20 31 29.56 1001 10 16.0934 0 0
2:15 am 02:15 Clear 63 17.1 51 10.5 65 65 S 16 26 29.56 1001 10 16.0934 0 0
2:35 am 02:35 Clear 62 16.6 51 10.5 67 67 S 15 24 29.56 1001 10 16.0934 0 0
2:55 am 02:55 Clear 62 16.5 51 10.6 68 68 S 13 20 29.53 1000 10 16.0934 0 0
3:15 am 03:15 Clear 62 16.5 51 10.7 69 69 S 16 26 29.53 1000 10 16.0934 0 0
3:35 am 03:35 Clear 62 16.5 51 10.8 69 69 S 13 20 29.56 1001 10 16.0934 0 0
3:55 am 03:55 Clear 62 16.6 51 10.7 68 68 S 15 24 29.56 1001 10 16.0934 0 0
4:15 am 04:15 Clear 61 16.1 51 10.8 71 71 S 13 20 29.53 1000 10 16.0934 0 0
4:35 am 04:35 Clear 61 16.1 52 11 72 72 S 10 17 29.53 1000 10 16.0934 0 0
4:55 am 04:55 Clear 60 15.7 52 11 74 74 S 8 13 29.53 1000 10 16.0934 0 0
5:15 am 05:15 Clear 61 15.9 51 10.7 71 71 S 12 19 29.53 1000 10 16.0934 0 0
5:35 am 05:35 Clear 60 15.6 52 10.9 74 74 S 13 20 29.53 1000 10 16.0934 0 0
5:55 am 05:55 Clear 59 15.2 52 11 76 76 S 14 22 29.56 1001 10 16.0934 0 0
6:15 am 06:15 Partly Cloudy 59 15.1 51 10.8 76 76 S 14 22 29.56 1001 10 16.0934 0 0
6:35 am 06:35 Partly Cloudy 59 15 51 10.7 76 76 SSW 12 19 29.56 1001 10 16.0934 0 0
6:55 am 06:55 Sunny 58 14.4 51 10.6 78 78 S 12 19 29.59 1002 10 16.0934 0 0
7:15 am 07:15 Sunny 58 14.2 51 10.6 79 79 S 9 15 29.59 1002 10 16.0934 0 0
7:35 am 07:35 Sunny 57 14.1 51 10.8 81 81 S 9 15 29.59 1002 10 16.0934 0 0
7:55 am 07:55 Sunny 57 14 52 11 82 82 S 8 13 29.59 1002 10 16.0934 0 0
8:15 am 08:15 Sunny 59 14.9 53 11.5 80 80 S 9 15 29.59 1002 10 16.0934 0 0
8:35 am 08:35 Sunny 60 15.8 53 11.5 76 76 SSW 8 13 29.59 1002 10 16.0934 0 0
8:55 am 08:55 Sunny 61 16.3 53 11.4 73 73 S 6 9 29.56 1001 10 16.0934 0 0
9:15 am 09:15 Sunny 62 16.6 51 10.8 69 69 S 6 9 29.56 1001 10 16.0934 0 0
9:35 am 09:35 Sunny 63 17.2 49 9.2 60 60 SSW 5 7 29.56 1001 10 16.0934 0 0
9:55 am 09:55 Sunny 63 17.2 45 7.2 52 52 Calm 29.56 1001 10 16.0934 0 0
10:15 am 10:15 Sunny 65 18.4 41 4.8 41 41 Calm 29.53 1000 10 16.0934 0 0
10:35 am 10:35 Sunny 65 18.2 39 4.1 39 39 NW 3 6 29.53 1000 10 16.0934 0 0
10:55 am 10:55 Sunny 65 18.6 41 4.8 40 40 W 5 7 29.53 1000 10 16.0934 0 0
11:15 am 11:15 Sunny 66 18.8 37 3 35 35 Calm 29.53 1000 10 16.0934 0 0
11:35 am 11:35 Sunny 67 19.7 38 3.4 34 34 WNW 9 15 29.5 999 10 16.0934 0 0
11:55 am 11:55 Sunny 67 19.6 37 2.8 33 33 WNW 10 17 29.47 998 10 16.0934 0 0
12:15 pm 12:15 Sunny 68 20.1 36 2.3 31 31 WNW 8 13 29.47 998 10 16.0934 0 0
12:35 pm 12:35 Partly Cloudy 68 20.1 37 2.9 32 32 WNW 9 15 29.47 998 10 16.0934 0 0
12:55 pm 12:55 Partly Cloudy 67 19.6 36 2.1 31 31 NNW 3 6 29.47 998 10 16.0934 0 0
1:15 pm 13:15 Partly Cloudy 68 19.8 37 2.6 32 32 Calm 29.47 998 10 16.0934 0 0
1:35 pm 13:35 Sunny 71 21.4 38 3.4 31 31 Calm 29.47 998 10 16.0934 0 0
1:55 pm 13:55 Sunny 71 21.5 37 2.6 29 29 Calm 29.47 998 10 16.0934 0 0
2:15 pm 14:15 Sunny 71 21.5 33 0.6 25 25 Calm 29.47 998 10 16.0934 0 0
2:35 pm 14:35 Sunny 72 22.1 35 1.4 26 26 Calm 29.47 998 10 16.0934 0 0
2:55 pm 14:55 Sunny 72 22.3 34 1.2 25 25 Calm 29.47 998 10 16.0934 0 0
3:15 pm 15:15 Sunny 73 22.5 33 0.7 24 24 Calm 29.44 997 10 16.0934 0 0
3:35 pm 15:35 Sunny 74 23.3 31 -0.7 20 20 Calm 29.41 996 10 16.0934 0 0
3:55 pm 15:55 Sunny 74 23.6 31 -0.5 20 20 Calm 29.41 996 10 16.0934 0 0
4:15 pm 16:15 Sunny 76 24.3 33 0.8 21 21 SW 10 17 29.41 996 10 16.0934 0 0
4:35 pm 16:35 Sunny 76 24.4 32 0 20 20 W 12 19 29.41 996 10 16.0934 0 0
4:55 pm 16:55 Sunny 76 24.5 33 0.4 20 20 SW 8 13 29.41 996 10 16.0934 0 0
5:15 pm 17:15 Sunny 74 23.6 31 -0.6 20 20 WSW 16 26 29.41 996 10 16.0934 0 0
5:35 pm 17:35 Sunny 74 23.6 32 0.1 21 21 SW 9 15 29.41 996 10 16.0934 0 0
5:55 pm 17:55 Sunny 74 23.2 32 0.2 22 22 WSW 10 17 29.41 996 10 16.0934 0 0
6:15 pm 18:15 Sunny 73 23 32 0.1 22 22 WSW 9 15 29.41 996 10 16.0934 0 0
6:35 pm 18:35 Partly Cloudy 74 23.1 33 0.8 23 23 WSW 13 20 29.41 996 10 16.0934 0 0
6:55 pm 18:55 Mostly Cloudy 73 22.5 34 1.2 25 25 WNW 18 30 29.41 996 10 16.0934 0 0
7:15 pm 19:15 Partly Cloudy 68 20.2 38 3.3 33 33 WNW 20 31 29.47 998 10 16.0934 0 0
7:35 pm 19:35 Sunny 68 20 37 2.7 32 32 WNW 13 20 29.47 998 10 16.0934 0 0
7:55 pm 19:55 Sunny 66 19 36 2.2 33 33 WNW 14 22 29.47 998 10 16.0934 0 0
8:15 pm 20:15 Sunny 64 17.9 37 2.7 36 36 WNW 12 19 29.5 999 10 16.0934 0 0
8:35 pm 20:35 Clear 62 16.7 38 3.2 41 41 WNW 13 20 29.53 1000 10 16.0934 0 0
8:55 pm 20:55 Clear 61 16.3 38 3.2 42 42 WNW 13 20 29.53 1000 10 16.0934 0 0
9:15 pm 21:15 Clear 60 15.7 38 3.5 44 44 WNW 13 20 29.53 1000 10 16.0934 0 0
9:35 pm 21:35 Clear 58 14.6 39 4 49 49 W 12 19 29.59 1002 10 16.0934 0 0
9:55 pm 21:55 Clear 57 14.1 40 4.2 52 52 W 12 19 29.59 1002 10 16.0934 0 0
10:15 pm 22:15 Clear 57 14.1 39 4.1 51 51 W 15 24 29.59 1002 10 16.0934 0 0
10:35 pm 22:35 Clear 58 14.2 38 3.5 49 49 WNW 14 22 29.59 1002 10 16.0934 0 0
10:55 pm 22:55 Clear 57 13.7 38 3.5 50 50 WNW 10 17 29.59 1002 10 16.0934 0 0
11:15 pm 23:15 Clear 55 13 38 3.5 53 53 W 8 13 29.62 1003 10 16.0934 0 0
11:35 pm 23:35 Clear 54 12.3 38 3.5 55 55 WNW 7 11 29.62 1003 10 16.0934 0 0
11:55 pm 23:55 Clear 53 11.6 38 3.5 58 58 W 9 15 29.65 1004 10 16.0934 0 0

Powered by AerisWeather